owner,sensor,date,latitude,longitude,vertical_datum,sea_water_practical_salinity,qcFlag 
DISL,ioos:station:DISL:PPTA:1,2019-06-01T00:00:00Z,30.2791,-87.5561,1.313,23.19,11111222 
DISL,ioos:station:DISL:PPTA:1,2019-06-01T00:30:00Z,30.2791,-87.5561,1.3,23.0,11111222 
DISL,ioos:station:DISL:PPTA:1,2019-06-01T01:00:00Z,30.2791,-87.5561,1.323,22.85,11111222 
DISL,ioos:station:DISL:PPTA:1,2019-06-01T01:30:00Z,30.2791,-87.5561,1.3,23.0,11111222 
DISL,ioos:station:DISL:PPTA:1,2019-06-01T02:00:00Z,30.2791,-87.5561,1.337,22.89,11111222 
DISL,ioos:station:DISL:PPTA:1,2019-06-01T02:30:00Z,30.2791,-87.5561,1.3,21.5,11111222 
DISL,ioos:station:DISL:PPTA:1,2019-06-01T03:00:00Z,30.2791,-87.5561,1.345,21.36,11111222 
DISL,ioos:station:DISL:PPTA:1,2019-06-01T03:30:00Z,30.2791,-87.5561,1.4,20.5,11111222 
DISL,ioos:station:DISL:PPTA:1,2019-06-01T04:00:00Z,30.2791,-87.5561,1.347,22.22,11111222 
DISL,ioos:station:DISL:PPTA:1,2019-06-01T04:30:00Z,30.2791,-87.5561,1.4,20.2,11111222 
DISL,ioos:station:DISL:PPTA:1,2019-06-01T05:00:00Z,30.2791,-87.5561,1.348,23.56,11111222 
DISL,ioos:station:DISL:PPTA:1,2019-06-01T05:30:00Z,30.2791,-87.5561,1.3,26.4,11111222 
DISL,ioos:station:DISL:PPTA:1,2019-06-01T06:00:00Z,30.2791,-87.5561,1.364,27.74,11111222 
DISL,ioos:station:DISL:PPTA:1,2019-06-01T06:30:00Z,30.2791,-87.5561,1.4,28.5,11111222 
DISL,ioos:station:DISL:PPTA:1,2019-06-01T07:00:00Z,30.2791,-87.5561,1.364,28.8,11111222 
DISL,ioos:station:DISL:PPTA:1,2019-06-01T07:30:00Z,30.2791,-87.5561,1.4,29.3,11111222 
DISL,ioos:station:DISL:PPTA:1,2019-06-01T08:00:00Z,30.2791,-87.5561,1.4,30.19,11111222 
DISL,ioos:station:DISL:PPTA:1,2019-06-01T08:30:00Z,30.2791,-87.5561,1.4,31.0,11111222 
DISL,ioos:station:DISL:PPTA:1,2019-06-01T09:00:00Z,30.2791,-87.5561,1.413,30.76,11111222 
DISL,ioos:station:DISL:PPTA:1,2019-06-01T09:30:00Z,30.2791,-87.5561,1.4,31.0,11111222 
DISL,ioos:station:DISL:PPTA:1,2019-06-01T10:00:00Z,30.2791,-87.5561,1.463,31.29,11111222 
DISL,ioos:station:DISL:PPTA:1,2019-06-01T10:30:00Z,30.2791,-87.5561,1.5,31.7,11111222 
DISL,ioos:station:DISL:PPTA:1,2019-06-01T11:00:00Z,30.2791,-87.5561,1.483,31.59,11111222 
DISL,ioos:station:DISL:PPTA:1,2019-06-01T11:30:00Z,30.2791,-87.5561,1.5,31.6,11111222 
DISL,ioos:station:DISL:PPTA:1,2019-06-01T12:00:00Z,30.2791,-87.5561,1.52,31.96,11111222 
DISL,ioos:station:DISL:PPTA:1,2019-06-01T12:30:00Z,30.2791,-87.5561,1.5,31.9,11111222 
DISL,ioos:station:DISL:PPTA:1,2019-06-01T13:00:00Z,30.2791,-87.5561,1.536,32.34,11111222 
DISL,ioos:station:DISL:PPTA:1,2019-06-01T13:30:00Z,30.2791,-87.5561,1.5,32.1,11111222 
DISL,ioos:station:DISL:PPTA:1,2019-06-01T14:00:00Z,30.2791,-87.5561,1.54,32.0,11111222 
DISL,ioos:station:DISL:PPTA:1,2019-06-01T14:30:00Z,30.2791,-87.5561,1.5,32.4,11111222 
DISL,ioos:station:DISL:PPTA:1,2019-06-01T15:00:00Z,30.2791,-87.5561,1.515,32.4,11111222 
DISL,ioos:station:DISL:PPTA:1,2019-06-01T15:30:00Z,30.2791,-87.5561,1.5,32.1,11111222 
DISL,ioos:station:DISL:PPTA:1,2019-06-01T16:00:00Z,30.2791,-87.5561,1.52,32.12,11111222 
DISL,ioos:station:DISL:PPTA:1,2019-06-01T16:30:00Z,30.2791,-87.5561,1.5,31.9,11111222 
DISL,ioos:station:DISL:PPTA:1,2019-06-01T17:00:00Z,30.2791,-87.5561,1.469,30.95,11111222 
DISL,ioos:station:DISL:PPTA:1,2019-06-01T17:30:00Z,30.2791,-87.5561,1.5,30.1,11111222 
DISL,ioos:station:DISL:PPTA:1,2019-06-01T18:00:00Z,30.2791,-87.5561,1.416,29.94,11111222 
DISL,ioos:station:DISL:PPTA:1,2019-06-01T18:30:00Z,30.2791,-87.5561,1.4,31.0,11111222 
DISL,ioos:station:DISL:PPTA:1,2019-06-01T19:00:00Z,30.2791,-87.5561,1.374,30.13,11111222 
DISL,ioos:station:DISL:PPTA:1,2019-06-01T19:30:00Z,30.2791,-87.5561,1.4,29.1,11111222 
DISL,ioos:station:DISL:PPTA:1,2019-06-01T20:00:00Z,30.2791,-87.5561,1.344,28.27,11111222 
DISL,ioos:station:DISL:PPTA:1,2019-06-01T20:30:00Z,30.2791,-87.5561,1.4,27.4,11111222 
DISL,ioos:station:DISL:PPTA:1,2019-06-01T21:00:00Z,30.2791,-87.5561,1.342,27.16,11111222 
DISL,ioos:station:DISL:PPTA:1,2019-06-01T21:30:00Z,30.2791,-87.5561,1.3,27.1,11111222 
DISL,ioos:station:DISL:PPTA:1,2019-06-01T22:00:00Z,30.2791,-87.5561,1.308,27.53,11111222 
DISL,ioos:station:DISL:PPTA:1,2019-06-01T22:30:00Z,30.2791,-87.5561,1.3,25.6,11111222 
DISL,ioos:station:DISL:PPTA:1,2019-06-01T23:00:00Z,30.2791,-87.5561,1.295,23.52,11111222 
DISL,ioos:station:DISL:PPTA:1,2019-06-01T23:30:00Z,30.2791,-87.5561,1.3,21.1,11111222 
DISL,ioos:station:DISL:PPTA:1,2019-06-02T00:00:00Z,30.2791,-87.5561,1.261,25.34,11111222 
DISL,ioos:station:DISL:PPTA:1,2019-06-02T00:30:00Z,30.2791,-87.5561,1.3,21.8,11111222 
DISL,ioos:station:DISL:PPTA:1,2019-06-02T01:00:00Z,30.2791,-87.5561,1.262,20.4,11111222 
DISL,ioos:station:DISL:PPTA:1,2019-06-02T01:30:00Z,30.2791,-87.5561,1.3,19.7,11111222 
DISL,ioos:station:DISL:PPTA:1,2019-06-02T02:00:00Z,30.2791,-87.5561,1.289,18.19,11111222 
DISL,ioos:station:DISL:PPTA:1,2019-06-02T02:30:00Z,30.2791,-87.5561,1.3,18.7,11111222 
DISL,ioos:station:DISL:PPTA:1,2019-06-02T03:00:00Z,30.2791,-87.5561,1.294,20.65,11111222 
DISL,ioos:station:DISL:PPTA:1,2019-06-02T03:30:00Z,30.2791,-87.5561,1.3,21.3,11111222 
DISL,ioos:station:DISL:PPTA:1,2019-06-02T04:00:00Z,30.2791,-87.5561,1.268,21.66,11111222 
DISL,ioos:station:DISL:PPTA:1,2019-06-02T04:30:00Z,30.2791,-87.5561,1.3,19.6,11111222 
DISL,ioos:station:DISL:PPTA:1,2019-06-02T05:00:00Z,30.2791,-87.5561,1.301,20.05,11111222 
DISL,ioos:station:DISL:PPTA:1,2019-06-02T05:30:00Z,30.2791,-87.5561,1.3,22.6,11111222 
DISL,ioos:station:DISL:PPTA:1,2019-06-02T06:00:00Z,30.2791,-87.5561,1.31,26.18,11111222 
DISL,ioos:station:DISL:PPTA:1,2019-06-02T06:30:00Z,30.2791,-87.5561,1.3,28.5,11111222 
DISL,ioos:station:DISL:PPTA:1,2019-06-02T07:00:00Z,30.2791,-87.5561,1.317,29.56,11111222 
DISL,ioos:station:DISL:PPTA:1,2019-06-02T07:30:00Z,30.2791,-87.5561,1.4,29.7,11111222 
DISL,ioos:station:DISL:PPTA:1,2019-06-02T08:00:00Z,30.2791,-87.5561,1.383,30.08,11111222 
DISL,ioos:station:DISL:PPTA:1,2019-06-02T08:30:00Z,30.2791,-87.5561,1.4,29.1,11111222 
DISL,ioos:station:DISL:PPTA:1,2019-06-02T09:00:00Z,30.2791,-87.5561,1.415,29.93,11111222 
DISL,ioos:station:DISL:PPTA:1,2019-06-02T09:30:00Z,30.2791,-87.5561,1.4,29.9,11111222 
DISL,ioos:station:DISL:PPTA:1,2019-06-02T10:00:00Z,30.2791,-87.5561,1.434,29.83,11111222 
DISL,ioos:station:DISL:PPTA:1,2019-06-02T10:30:00Z,30.2791,-87.5561,1.5,30.6,11111222 
DISL,ioos:station:DISL:PPTA:1,2019-06-02T11:00:00Z,30.2791,-87.5561,1.482,31.03,11111222 
DISL,ioos:station:DISL:PPTA:1,2019-06-02T11:30:00Z,30.2791,-87.5561,1.5,31.2,11111222 
DISL,ioos:station:DISL:PPTA:1,2019-06-02T12:00:00Z,30.2791,-87.5561,1.51,31.03,11111222 
DISL,ioos:station:DISL:PPTA:1,2019-06-02T12:30:00Z,30.2791,-87.5561,1.5,31.2,11111222 
DISL,ioos:station:DISL:PPTA:1,2019-06-02T13:00:00Z,30.2791,-87.5561,1.535,30.57,11111222 
DISL,ioos:station:DISL:PPTA:1,2019-06-02T13:30:00Z,30.2791,-87.5561,1.5,30.9,11111222 
DISL,ioos:station:DISL:PPTA:1,2019-06-02T14:00:00Z,30.2791,-87.5561,1.542,30.87,11111222 
DISL,ioos:station:DISL:PPTA:1,2019-06-02T14:30:00Z,30.2791,-87.5561,1.6,31.0,11111222 
DISL,ioos:station:DISL:PPTA:1,2019-06-02T15:00:00Z,30.2791,-87.5561,1.568,30.76,11111222 
DISL,ioos:station:DISL:PPTA:1,2019-06-02T15:30:00Z,30.2791,-87.5561,1.6,30.4,11111222 
DISL,ioos:station:DISL:PPTA:1,2019-06-02T16:00:00Z,30.2791,-87.5561,1.543,30.7,11111222 
DISL,ioos:station:DISL:PPTA:1,2019-06-02T16:30:00Z,30.2791,-87.5561,1.5,30.6,11111222 
DISL,ioos:station:DISL:PPTA:1,2019-06-02T17:00:00Z,30.2791,-87.5561,1.51,30.69,11111222 
DISL,ioos:station:DISL:PPTA:1,2019-06-02T17:30:00Z,30.2791,-87.5561,1.5,30.4,11111222 
DISL,ioos:station:DISL:PPTA:1,2019-06-02T18:00:00Z,30.2791,-87.5561,1.452,29.75,11111222 
DISL,ioos:station:DISL:PPTA:1,2019-06-02T18:30:00Z,30.2791,-87.5561,1.4,29.3,11111222 
DISL,ioos:station:DISL:PPTA:1,2019-06-02T19:00:00Z,30.2791,-87.5561,1.411,30.03,11111222 
DISL,ioos:station:DISL:PPTA:1,2019-06-02T19:30:00Z,30.2791,-87.5561,1.4,29.7,11111222 
DISL,ioos:station:DISL:PPTA:1,2019-06-02T20:00:00Z,30.2791,-87.5561,1.368,29.06,11111222 
DISL,ioos:station:DISL:PPTA:1,2019-06-02T20:30:00Z,30.2791,-87.5561,1.4,27.4,11111222 
DISL,ioos:station:DISL:PPTA:1,2019-06-02T21:00:00Z,30.2791,-87.5561,1.334,27.49,11111222 
DISL,ioos:station:DISL:PPTA:1,2019-06-02T21:30:00Z,30.2791,-87.5561,1.3,27.8,11111222 
DISL,ioos:station:DISL:PPTA:1,2019-06-02T22:00:00Z,30.2791,-87.5561,1.318,26.76,11111222 
DISL,ioos:station:DISL:PPTA:1,2019-06-02T22:30:00Z,30.2791,-87.5561,1.3,26.4,11111222 
DISL,ioos:station:DISL:PPTA:1,2019-06-02T23:00:00Z,30.2791,-87.5561,1.303,23.95,11111222 
DISL,ioos:station:DISL:PPTA:1,2019-06-02T23:30:00Z,30.2791,-87.5561,1.3,24.5,11111222 
DISL,ioos:station:DISL:PPTA:1,2019-06-03T00:00:00Z,30.2791,-87.5561,1.263,24.43,11111222 
DISL,ioos:station:DISL:PPTA:1,2019-06-03T00:30:00Z,30.2791,-87.5561,1.3,21.1,11111222 
DISL,ioos:station:DISL:PPTA:1,2019-06-03T01:00:00Z,30.2791,-87.5561,1.245,26.34,11111222 
DISL,ioos:station:DISL:PPTA:1,2019-06-03T01:30:00Z,30.2791,-87.5561,1.3,21.3,11111222 
DISL,ioos:station:DISL:PPTA:1,2019-06-03T02:00:00Z,30.2791,-87.5561,1.254,18.82,11111222 
DISL,ioos:station:DISL:PPTA:1,2019-06-03T02:30:00Z,30.2791,-87.5561,1.3,24.3,11111222 
DISL,ioos:station:DISL:PPTA:1,2019-06-03T03:00:00Z,30.2791,-87.5561,1.267,18.23,11111222 
DISL,ioos:station:DISL:PPTA:1,2019-06-03T03:30:00Z,30.2791,-87.5561,1.3,19.5,11111222 
DISL,ioos:station:DISL:PPTA:1,2019-06-03T04:00:00Z,30.2791,-87.5561,1.288,23.54,11111222 
DISL,ioos:station:DISL:PPTA:1,2019-06-03T04:30:00Z,30.2791,-87.5561,1.3,20.2,11111222 
DISL,ioos:station:DISL:PPTA:1,2019-06-03T05:00:00Z,30.2791,-87.5561,1.291,20.39,11111222 
DISL,ioos:station:DISL:PPTA:1,2019-06-03T05:30:00Z,30.2791,-87.5561,1.3,19.7,11111222 
DISL,ioos:station:DISL:PPTA:1,2019-06-03T06:00:00Z,30.2791,-87.5561,1.303,19.35,11111222 
DISL,ioos:station:DISL:PPTA:1,2019-06-03T06:30:00Z,30.2791,-87.5561,1.3,23.9,11111222 
DISL,ioos:station:DISL:PPTA:1,2019-06-03T07:00:00Z,30.2791,-87.5561,1.325,23.98,11111222 
DISL,ioos:station:DISL:PPTA:1,2019-06-03T07:30:00Z,30.2791,-87.5561,1.4,24.9,11111222 
DISL,ioos:station:DISL:PPTA:1,2019-06-03T08:00:00Z,30.2791,-87.5561,1.355,25.49,11111222 
DISL,ioos:station:DISL:PPTA:1,2019-06-03T08:30:00Z,30.2791,-87.5561,1.4,26.5,11111222 
DISL,ioos:station:DISL:PPTA:1,2019-06-03T09:00:00Z,30.2791,-87.5561,1.393,27.61,11111222 
DISL,ioos:station:DISL:PPTA:1,2019-06-03T09:30:00Z,30.2791,-87.5561,1.4,28.1,11111222 
DISL,ioos:station:DISL:PPTA:1,2019-06-03T10:00:00Z,30.2791,-87.5561,1.439,28.33,11111222 
DISL,ioos:station:DISL:PPTA:1,2019-06-03T10:30:00Z,30.2791,-87.5561,1.5,29.0,11111222 
DISL,ioos:station:DISL:PPTA:1,2019-06-03T11:00:00Z,30.2791,-87.5561,1.472,28.69,11111222 
DISL,ioos:station:DISL:PPTA:1,2019-06-03T11:30:00Z,30.2791,-87.5561,1.5,28.8,11111222 
DISL,ioos:station:DISL:PPTA:1,2019-06-03T12:00:00Z,30.2791,-87.5561,1.52,28.7,11111222 
DISL,ioos:station:DISL:PPTA:1,2019-06-03T12:30:00Z,30.2791,-87.5561,1.5,29.2,11111222 
DISL,ioos:station:DISL:PPTA:1,2019-06-03T13:00:00Z,30.2791,-87.5561,1.55,29.17,11111222 
DISL,ioos:station:DISL:PPTA:1,2019-06-03T13:30:00Z,30.2791,-87.5561,1.6,30.3,11111222 
DISL,ioos:station:DISL:PPTA:1,2019-06-03T14:00:00Z,30.2791,-87.5561,1.56,30.05,11111222 
DISL,ioos:station:DISL:PPTA:1,2019-06-03T14:30:00Z,30.2791,-87.5561,1.6,30.3,11111222 
DISL,ioos:station:DISL:PPTA:1,2019-06-03T15:00:00Z,30.2791,-87.5561,1.576,30.07,11111222 
DISL,ioos:station:DISL:PPTA:1,2019-06-03T15:30:00Z,30.2791,-87.5561,1.6,30.0,11111222 
DISL,ioos:station:DISL:PPTA:1,2019-06-03T16:00:00Z,30.2791,-87.5561,1.57,30.15,11111222 
DISL,ioos:station:DISL:PPTA:1,2019-06-03T16:30:00Z,30.2791,-87.5561,1.6,31.1,11111222 
DISL,ioos:station:DISL:PPTA:1,2019-06-03T17:00:00Z,30.2791,-87.5561,1.551,31.04,11111222 
DISL,ioos:station:DISL:PPTA:1,2019-06-03T17:30:00Z,30.2791,-87.5561,1.5,31.2,11111222 
DISL,ioos:station:DISL:PPTA:1,2019-06-03T18:00:00Z,30.2791,-87.5561,1.492,30.89,11111222 
DISL,ioos:station:DISL:PPTA:1,2019-06-03T18:30:00Z,30.2791,-87.5561,1.5,29.5,11111222 
DISL,ioos:station:DISL:PPTA:1,2019-06-03T19:00:00Z,30.2791,-87.5561,1.448,27.88,11111222 
DISL,ioos:station:DISL:PPTA:1,2019-06-03T19:30:00Z,30.2791,-87.5561,1.4,29.5,11111222 
DISL,ioos:station:DISL:PPTA:1,2019-06-03T20:00:00Z,30.2791,-87.5561,1.394,29.17,11111222 
DISL,ioos:station:DISL:PPTA:1,2019-06-03T20:30:00Z,30.2791,-87.5561,1.4,27.8,11111222 
DISL,ioos:station:DISL:PPTA:1,2019-06-03T21:00:00Z,30.2791,-87.5561,1.351,27.36,11111222 
DISL,ioos:station:DISL:PPTA:1,2019-06-03T21:30:00Z,30.2791,-87.5561,1.3,27.2,11111222 
DISL,ioos:station:DISL:PPTA:1,2019-06-03T22:00:00Z,30.2791,-87.5561,1.312,27.14,11111222 
DISL,ioos:station:DISL:PPTA:1,2019-06-03T22:30:00Z,30.2791,-87.5561,1.3,26.2,11111222 
DISL,ioos:station:DISL:PPTA:1,2019-06-03T23:00:00Z,30.2791,-87.5561,1.275,27.5,11111222 
DISL,ioos:station:DISL:PPTA:1,2019-06-03T23:30:00Z,30.2791,-87.5561,1.3,26.1,11111222 
DISL,ioos:station:DISL:PPTA:1,2019-06-04T00:00:00Z,30.2791,-87.5561,1.25,24.48,11111222 
DISL,ioos:station:DISL:PPTA:1,2019-06-04T00:30:00Z,30.2791,-87.5561,1.2,22.5,11111222 
DISL,ioos:station:DISL:PPTA:1,2019-06-04T01:00:00Z,30.2791,-87.5561,1.243,21.38,11111222 
DISL,ioos:station:DISL:PPTA:1,2019-06-04T01:30:00Z,30.2791,-87.5561,1.2,21.0,11111222 
DISL,ioos:station:DISL:PPTA:1,2019-06-04T02:00:00Z,30.2791,-87.5561,1.22,20.8,11111222 
DISL,ioos:station:DISL:PPTA:1,2019-06-04T02:30:00Z,30.2791,-87.5561,1.2,20.4,11111222 
DISL,ioos:station:DISL:PPTA:1,2019-06-04T03:00:00Z,30.2791,-87.5561,1.224,19.72,11111222 
DISL,ioos:station:DISL:PPTA:1,2019-06-04T03:30:00Z,30.2791,-87.5561,1.2,19.1,11111222 
DISL,ioos:station:DISL:PPTA:1,2019-06-04T04:00:00Z,30.2791,-87.5561,1.228,19.04,11111222 
DISL,ioos:station:DISL:PPTA:1,2019-06-04T04:30:00Z,30.2791,-87.5561,1.3,17.4,11111222 
DISL,ioos:station:DISL:PPTA:1,2019-06-04T05:00:00Z,30.2791,-87.5561,1.249,20.76,11111222 
DISL,ioos:station:DISL:PPTA:1,2019-06-04T05:30:00Z,30.2791,-87.5561,1.3,24.3,11111222 
DISL,ioos:station:DISL:PPTA:1,2019-06-04T06:00:00Z,30.2791,-87.5561,1.279,19.69,11111222 
DISL,ioos:station:DISL:PPTA:1,2019-06-04T06:30:00Z,30.2791,-87.5561,1.3,19.9,11111222 
DISL,ioos:station:DISL:PPTA:1,2019-06-04T07:00:00Z,30.2791,-87.5561,1.279,23.85,11111222 
DISL,ioos:station:DISL:PPTA:1,2019-06-04T07:30:00Z,30.2791,-87.5561,1.3,25.5,11111222 
DISL,ioos:station:DISL:PPTA:1,2019-06-04T08:00:00Z,30.2791,-87.5561,1.298,27.18,11111222 
DISL,ioos:station:DISL:PPTA:1,2019-06-04T08:30:00Z,30.2791,-87.5561,1.3,27.2,11111222 
DISL,ioos:station:DISL:PPTA:1,2019-06-04T09:00:00Z,30.2791,-87.5561,1.338,27.38,11111222 
DISL,ioos:station:DISL:PPTA:1,2019-06-04T09:30:00Z,30.2791,-87.5561,1.4,27.1,11111222 
DISL,ioos:station:DISL:PPTA:1,2019-06-04T10:00:00Z,30.2791,-87.5561,1.385,28.42,11111222 
DISL,ioos:station:DISL:PPTA:1,2019-06-04T10:30:00Z,30.2791,-87.5561,1.4,28.6,11111222 
DISL,ioos:station:DISL:PPTA:1,2019-06-04T11:00:00Z,30.2791,-87.5561,1.434,30.27,11111222 
DISL,ioos:station:DISL:PPTA:1,2019-06-04T11:30:00Z,30.2791,-87.5561,1.5,29.3,11111222 
DISL,ioos:station:DISL:PPTA:1,2019-06-04T12:00:00Z,30.2791,-87.5561,1.476,30.14,11111222 
DISL,ioos:station:DISL:PPTA:1,2019-06-04T12:30:00Z,30.2791,-87.5561,1.5,30.4,11111222 
DISL,ioos:station:DISL:PPTA:1,2019-06-04T13:00:00Z,30.2791,-87.5561,1.517,30.39,11111222 
DISL,ioos:station:DISL:PPTA:1,2019-06-04T13:30:00Z,30.2791,-87.5561,1.5,31.0,11111222 
DISL,ioos:station:DISL:PPTA:1,2019-06-04T14:00:00Z,30.2791,-87.5561,1.547,31.38,11111222 
DISL,ioos:station:DISL:PPTA:1,2019-06-04T14:30:00Z,30.2791,-87.5561,1.6,30.7,11111222 
DISL,ioos:station:DISL:PPTA:1,2019-06-04T15:00:00Z,30.2791,-87.5561,1.567,31.66,11111222 
DISL,ioos:station:DISL:PPTA:1,2019-06-04T15:30:00Z,30.2791,-87.5561,1.6,31.6,11111222 
DISL,ioos:station:DISL:PPTA:1,2019-06-04T16:00:00Z,30.2791,-87.5561,1.556,31.31,11111222 
DISL,ioos:station:DISL:PPTA:1,2019-06-04T16:30:00Z,30.2791,-87.5561,1.6,31.4,11111222 
DISL,ioos:station:DISL:PPTA:1,2019-06-04T17:00:00Z,30.2791,-87.5561,1.563,30.5,11111222 
DISL,ioos:station:DISL:PPTA:1,2019-06-04T17:30:00Z,30.2791,-87.5561,1.5,30.8,11111222 
DISL,ioos:station:DISL:PPTA:1,2019-06-04T18:00:00Z,30.2791,-87.5561,1.508,30.74,11111222 
DISL,ioos:station:DISL:PPTA:1,2019-06-04T18:30:00Z,30.2791,-87.5561,1.5,31.0,11111222 
DISL,ioos:station:DISL:PPTA:1,2019-06-04T19:00:00Z,30.2791,-87.5561,1.462,30.24,11111222 
DISL,ioos:station:DISL:PPTA:1,2019-06-04T19:30:00Z,30.2791,-87.5561,1.4,30.0,11111222 
DISL,ioos:station:DISL:PPTA:1,2019-06-04T20:00:00Z,30.2791,-87.5561,1.397,29.78,11111222 
DISL,ioos:station:DISL:PPTA:1,2019-06-04T20:30:00Z,30.2791,-87.5561,1.4,30.0,11111222 
DISL,ioos:station:DISL:PPTA:1,2019-06-04T21:00:00Z,30.2791,-87.5561,1.353,29.92,11111222 
DISL,ioos:station:DISL:PPTA:1,2019-06-04T21:30:00Z,30.2791,-87.5561,1.3,29.6,11111222 
DISL,ioos:station:DISL:PPTA:1,2019-06-04T22:00:00Z,30.2791,-87.5561,1.3,27.32,11111222 
DISL,ioos:station:DISL:PPTA:1,2019-06-04T22:30:00Z,30.2791,-87.5561,1.3,25.8,11111222 
DISL,ioos:station:DISL:PPTA:1,2019-06-04T23:00:00Z,30.2791,-87.5561,1.272,26.12,11111222 
DISL,ioos:station:DISL:PPTA:1,2019-06-04T23:30:00Z,30.2791,-87.5561,1.3,26.3,11111222 
DISL,ioos:station:DISL:PPTA:1,2019-06-05T00:00:00Z,30.2791,-87.5561,1.244,25.91,11111222 
DISL,ioos:station:DISL:PPTA:1,2019-06-05T00:30:00Z,30.2791,-87.5561,1.2,25.5,11111222 
DISL,ioos:station:DISL:PPTA:1,2019-06-05T01:00:00Z,30.2791,-87.5561,1.217,24.08,11111222 
DISL,ioos:station:DISL:PPTA:1,2019-06-05T01:30:00Z,30.2791,-87.5561,1.2,23.3,11111222 
DISL,ioos:station:DISL:PPTA:1,2019-06-05T02:00:00Z,30.2791,-87.5561,1.197,22.59,11111222 
DISL,ioos:station:DISL:PPTA:1,2019-06-05T02:30:00Z,30.2791,-87.5561,1.2,21.6,11111222 
DISL,ioos:station:DISL:PPTA:1,2019-06-05T03:00:00Z,30.2791,-87.5561,1.187,21.14,11111222 
DISL,ioos:station:DISL:PPTA:1,2019-06-05T03:30:00Z,30.2791,-87.5561,1.2,21.0,11111222 
DISL,ioos:station:DISL:PPTA:1,2019-06-05T04:00:00Z,30.2791,-87.5561,1.188,20.51,11111222 
DISL,ioos:station:DISL:PPTA:1,2019-06-05T04:30:00Z,30.2791,-87.5561,1.2,20.1,11111222 
DISL,ioos:station:DISL:PPTA:1,2019-06-05T05:00:00Z,30.2791,-87.5561,1.203,19.6,11111222 
DISL,ioos:station:DISL:PPTA:1,2019-06-05T05:30:00Z,30.2791,-87.5561,1.2,22.1,11111222 
DISL,ioos:station:DISL:PPTA:1,2019-06-05T06:00:00Z,30.2791,-87.5561,1.228,24.02,11111222 
DISL,ioos:station:DISL:PPTA:1,2019-06-05T06:30:00Z,30.2791,-87.5561,1.2,23.8,11111222 
DISL,ioos:station:DISL:PPTA:1,2019-06-05T07:00:00Z,30.2791,-87.5561,1.258,21.84,11111222 
DISL,ioos:station:DISL:PPTA:1,2019-06-05T07:30:00Z,30.2791,-87.5561,1.3,23.4,11111222 
DISL,ioos:station:DISL:PPTA:1,2019-06-05T08:00:00Z,30.2791,-87.5561,1.265,23.95,11111222 
DISL,ioos:station:DISL:PPTA:1,2019-06-05T08:30:00Z,30.2791,-87.5561,1.3,26.7,11111222 
DISL,ioos:station:DISL:PPTA:1,2019-06-05T09:00:00Z,30.2791,-87.5561,1.304,27.11,11111222 
DISL,ioos:station:DISL:PPTA:1,2019-06-05T09:30:00Z,30.2791,-87.5561,1.3,27.4,11111222 
DISL,ioos:station:DISL:PPTA:1,2019-06-05T10:00:00Z,30.2791,-87.5561,1.325,28.27,11111222 
DISL,ioos:station:DISL:PPTA:1,2019-06-05T10:30:00Z,30.2791,-87.5561,1.3,28.4,11111222 
DISL,ioos:station:DISL:PPTA:1,2019-06-05T11:00:00Z,30.2791,-87.5561,1.39,27.89,11111222 
DISL,ioos:station:DISL:PPTA:1,2019-06-05T11:30:00Z,30.2791,-87.5561,1.4,28.8,11111222 
DISL,ioos:station:DISL:PPTA:1,2019-06-05T12:00:00Z,30.2791,-87.5561,1.432,28.78,11111222 
DISL,ioos:station:DISL:PPTA:1,2019-06-05T13:00:00Z,30.2791,-87.5561,1.497,29.65,11111222 
DISL,ioos:station:DISL:PPTA:1,2019-06-05T14:00:00Z,30.2791,-87.5561,1.541,30.37,11111222 
DISL,ioos:station:DISL:PPTA:1,2019-06-05T14:30:00Z,30.2791,-87.5561,1.6,31.6,11111222 
DISL,ioos:station:DISL:PPTA:1,2019-06-05T15:00:00Z,30.2791,-87.5561,1.546,31.6,11111222 
DISL,ioos:station:DISL:PPTA:1,2019-06-05T15:30:00Z,30.2791,-87.5561,1.6,31.4,11111222 
DISL,ioos:station:DISL:PPTA:1,2019-06-05T16:00:00Z,30.2791,-87.5561,1.56,31.38,11111222 
DISL,ioos:station:DISL:PPTA:1,2019-06-05T16:30:00Z,30.2791,-87.5561,1.6,31.2,11111222 
DISL,ioos:station:DISL:PPTA:1,2019-06-05T17:00:00Z,30.2791,-87.5561,1.566,31.42,11111222 
DISL,ioos:station:DISL:PPTA:1,2019-06-05T17:30:00Z,30.2791,-87.5561,1.6,30.6,11111222 
DISL,ioos:station:DISL:PPTA:1,2019-06-05T18:00:00Z,30.2791,-87.5561,1.563,31.07,11111222 
DISL,ioos:station:DISL:PPTA:1,2019-06-05T18:30:00Z,30.2791,-87.5561,1.6,30.5,11111222 
DISL,ioos:station:DISL:PPTA:1,2019-06-05T19:00:00Z,30.2791,-87.5561,1.541,30.53,11111222 
DISL,ioos:station:DISL:PPTA:1,2019-06-05T19:30:00Z,30.2791,-87.5561,1.5,30.3,11111222 
DISL,ioos:station:DISL:PPTA:1,2019-06-05T20:00:00Z,30.2791,-87.5561,1.477,29.61,11111222 
DISL,ioos:station:DISL:PPTA:1,2019-06-05T20:30:00Z,30.2791,-87.5561,1.5,29.7,11111222 
DISL,ioos:station:DISL:PPTA:1,2019-06-05T21:00:00Z,30.2791,-87.5561,1.437,29.49,11111222 
DISL,ioos:station:DISL:PPTA:1,2019-06-05T21:30:00Z,30.2791,-87.5561,1.4,29.1,11111222 
DISL,ioos:station:DISL:PPTA:1,2019-06-05T22:00:00Z,30.2791,-87.5561,1.379,29.74,11111222 
DISL,ioos:station:DISL:PPTA:1,2019-06-05T22:30:00Z,30.2791,-87.5561,1.4,28.2,11111222 
DISL,ioos:station:DISL:PPTA:1,2019-06-05T23:00:00Z,30.2791,-87.5561,1.356,27.87,11111222 
DISL,ioos:station:DISL:PPTA:1,2019-06-05T23:30:00Z,30.2791,-87.5561,1.3,28.5,11111222 
DISL,ioos:station:DISL:PPTA:1,2019-06-06T00:00:00Z,30.2791,-87.5561,1.305,26.24,11111222 
DISL,ioos:station:DISL:PPTA:1,2019-06-06T00:30:00Z,30.2791,-87.5561,1.3,25.0,11111222 
DISL,ioos:station:DISL:PPTA:1,2019-06-06T01:00:00Z,30.2791,-87.5561,1.271,24.79,11111222 
DISL,ioos:station:DISL:PPTA:1,2019-06-06T01:30:00Z,30.2791,-87.5561,1.3,24.4,11111222 
DISL,ioos:station:DISL:PPTA:1,2019-06-06T02:00:00Z,30.2791,-87.5561,1.258,23.75,11111222 
DISL,ioos:station:DISL:PPTA:1,2019-06-06T02:30:00Z,30.2791,-87.5561,1.3,23.6,11111222 
DISL,ioos:station:DISL:PPTA:1,2019-06-06T03:00:00Z,30.2791,-87.5561,1.212,22.58,11111222 
DISL,ioos:station:DISL:PPTA:1,2019-06-06T03:30:00Z,30.2791,-87.5561,1.2,21.9,11111222 
DISL,ioos:station:DISL:PPTA:1,2019-06-06T04:00:00Z,30.2791,-87.5561,1.247,21.17,11111222 
DISL,ioos:station:DISL:PPTA:1,2019-06-06T04:30:00Z,30.2791,-87.5561,1.2,21.2,11111222 
DISL,ioos:station:DISL:PPTA:1,2019-06-06T05:00:00Z,30.2791,-87.5561,1.229,22.52,11111222 
DISL,ioos:station:DISL:PPTA:1,2019-06-06T05:30:00Z,30.2791,-87.5561,1.2,19.8,11111222 
DISL,ioos:station:DISL:PPTA:1,2019-06-06T06:00:00Z,30.2791,-87.5561,1.244,18.92,11111222 
DISL,ioos:station:DISL:PPTA:1,2019-06-06T06:30:00Z,30.2791,-87.5561,1.3,20.0,11111222 
DISL,ioos:station:DISL:PPTA:1,2019-06-06T07:00:00Z,30.2791,-87.5561,1.279,22.03,11111222 
DISL,ioos:station:DISL:PPTA:1,2019-06-06T07:30:00Z,30.2791,-87.5561,1.3,21.5,11111222 
DISL,ioos:station:DISL:PPTA:1,2019-06-06T08:00:00Z,30.2791,-87.5561,1.337,22.45,11111222 
DISL,ioos:station:DISL:PPTA:1,2019-06-06T08:30:00Z,30.2791,-87.5561,1.3,22.3,11111222 
DISL,ioos:station:DISL:PPTA:1,2019-06-06T09:00:00Z,30.2791,-87.5561,1.366,24.41,11111222 
DISL,ioos:station:DISL:PPTA:1,2019-06-06T09:30:00Z,30.2791,-87.5561,1.3,25.2,11111222 
DISL,ioos:station:DISL:PPTA:1,2019-06-06T10:00:00Z,30.2791,-87.5561,1.404,25.52,11111222 
DISL,ioos:station:DISL:PPTA:1,2019-06-06T10:30:00Z,30.2791,-87.5561,1.4,23.6,11111222 
DISL,ioos:station:DISL:PPTA:1,2019-06-06T11:00:00Z,30.2791,-87.5561,1.353,24.2,11111222 
DISL,ioos:station:DISL:PPTA:1,2019-06-06T11:30:00Z,30.2791,-87.5561,1.4,23.2,11111222 
DISL,ioos:station:DISL:PPTA:1,2019-06-06T12:00:00Z,30.2791,-87.5561,1.474,22.52,11111222 
DISL,ioos:station:DISL:PPTA:1,2019-06-06T12:30:00Z,30.2791,-87.5561,1.5,22.4,11111222 
DISL,ioos:station:DISL:PPTA:1,2019-06-06T13:00:00Z,30.2791,-87.5561,1.492,21.99,11111222 
DISL,ioos:station:DISL:PPTA:1,2019-06-06T13:30:00Z,30.2791,-87.5561,1.5,22.0,11111222 
DISL,ioos:station:DISL:PPTA:1,2019-06-06T14:00:00Z,30.2791,-87.5561,1.604,23.09,11111222 
DISL,ioos:station:DISL:PPTA:1,2019-06-06T14:30:00Z,30.2791,-87.5561,1.6,22.9,11111222 
DISL,ioos:station:DISL:PPTA:1,2019-06-06T15:00:00Z,30.2791,-87.5561,1.631,23.89,11111222 
DISL,ioos:station:DISL:PPTA:1,2019-06-06T15:30:00Z,30.2791,-87.5561,1.6,24.1,11111222 